Stündliche Wetter Cayo Guillermo

Heute, 21 Januar, Donnerstag

Zeit Temperatur Niederschläge Wind Luftdruck Luftfeuchtigkeit
00:00 +23°C° 0 mm 7 m/S 764 mmHg 78%
01:00 +23°C° 0 mm 7 m/S 764 mmHg 79%
02:00 +22°C° 0 mm 6 m/S 764 mmHg 81%
03:00 +22°C° 0 mm 6 m/S 764 mmHg 83%
04:00 +22°C° 0 mm 6 m/S 763 mmHg 85%
05:00 +22°C° 0 mm 6 m/S 764 mmHg 83%
06:00 +22°C° 0 mm 6 m/S 764 mmHg 82%
07:00 +22°C° 0 mm 6 m/S 764 mmHg 80%
08:00 +23°C° 0 mm 6 m/S 764 mmHg 75%
09:00 +24°C° 0 mm 7 m/S 764 mmHg 70%
10:00 +26°C° 0 mm 7 m/S 765 mmHg 65%
11:00 +26°C° 0 mm 7 m/S 764 mmHg 64%
12:00 +27°C° 0 mm 6 m/S 764 mmHg 63%
13:00 +27°C° 0 mm 6 m/S 763 mmHg 61%
14:00 +27°C° 0 mm 6 m/S 763 mmHg 63%
15:00 +26°C° 0 mm 6 m/S 762 mmHg 65%
16:00 +26°C° 0 mm 5 m/S 762 mmHg 67%
17:00 +25°C° 0 mm 5 m/S 762 mmHg 73%
18:00 +23°C° 0 mm 5 m/S 762 mmHg 78%
19:00 +21°C° 0 mm 5 m/S 763 mmHg 84%
20:00 +21°C° 0 mm 5 m/S 763 mmHg 84%
21:00 +21°C° 0 mm 5 m/S 763 mmHg 84%
22:00 +21°C° 0 mm 5 m/S 763 mmHg 84%
23:00 +21°C° 0 mm 5 m/S 763 mmHg 83%

Morgen, 22 Januar, Freitag

Zeit Temperatur Niederschläge Wind Luftdruck Luftfeuchtigkeit
00:00 +21°C° 0 mm 5 m/S 762 mmHg 83%
01:00 +21°C° 0 mm 5 m/S 762 mmHg 82%
02:00 +22°C° 0 mm 5 m/S 762 mmHg 81%
03:00 +22°C° 0 mm 5 m/S 762 mmHg 79%
04:00 +22°C° 0 mm 5 m/S 761 mmHg 78%
05:00 +22°C° 0 mm 4 m/S 761 mmHg 80%
06:00 +21°C° 0 mm 4 m/S 762 mmHg 83%
07:00 +21°C° 0 mm 4 m/S 762 mmHg 86%
08:00 +22°C° 0 mm 4 m/S 762 mmHg 80%
09:00 +25°C° 0 mm 4 m/S 763 mmHg 73%
10:00 +27°C° 0 mm 3 m/S 763 mmHg 67%
11:00 +28°C° 0 mm 3 m/S 763 mmHg 64%
12:00 +29°C° 0 mm 3 m/S 762 mmHg 60%
13:00 +30°C° 0 mm 3 m/S 762 mmHg 56%
14:00 +29°C° 0 mm 3 m/S 762 mmHg 57%
15:00 +29°C° 0 mm 3 m/S 761 mmHg 58%
16:00 +29°C° 0 mm 3 m/S 761 mmHg 58%
17:00 +28°C° 0 mm 4 m/S 761 mmHg 67%
18:00 +26°C° 0 mm 4 m/S 762 mmHg 75%
19:00 +23°C° 0 mm 4 m/S 762 mmHg 83%
20:00 +23°C° 0 mm 4 m/S 762 mmHg 85%
21:00 +23°C° 0 mm 4 m/S 762 mmHg 86%
22:00 +22°C° 0 mm 4 m/S 763 mmHg 88%
23:00 +22°C° 0 mm 4 m/S 762 mmHg 89%

übermorgen, 23 Januar, Samstag

Zeit Temperatur Niederschläge Wind Luftdruck Luftfeuchtigkeit
00:00 +22°C° 0 mm 3 m/S 762 mmHg 91%
01:00 +21°C° 0 mm 3 m/S 762 mmHg 92%
02:00 +21°C° 0 mm 3 m/S 762 mmHg 93%
03:00 +21°C° 0 mm 3 m/S 762 mmHg 93%
04:00 +21°C° 0 mm 3 m/S 762 mmHg 94%
05:00 +21°C° 0 mm 3 m/S 762 mmHg 93%
06:00 +22°C° 0 mm 3 m/S 762 mmHg 92%
07:00 +22°C° 0 mm 3 m/S 763 mmHg 92%
08:00 +24°C° 0 mm 3 m/S 763 mmHg 84%
09:00 +26°C° 0 mm 3 m/S 763 mmHg 76%
10:00 +28°C° 0 mm 3 m/S 764 mmHg 69%
11:00 +28°C° 0 mm 3 m/S 763 mmHg 64%
12:00 +29°C° 0 mm 3 m/S 763 mmHg 60%
13:00 +30°C° 0 mm 3 m/S 762 mmHg 56%
14:00 +29°C° 0 mm 3 m/S 762 mmHg 59%
15:00 +28°C° 0 mm 4 m/S 762 mmHg 62%
16:00 +28°C° 0 mm 4 m/S 762 mmHg 65%
17:00 +26°C° 0 mm 5 m/S 762 mmHg 71%
18:00 +25°C° 0 mm 5 m/S 762 mmHg 78%
19:00 +23°C° 0 mm 6 m/S 763 mmHg 84%
20:00 +23°C° 0 mm 6 m/S 763 mmHg 85%
21:00 +22°C° 0 mm 6 m/S 763 mmHg 86%
22:00 +22°C° 0 mm 6 m/S 764 mmHg 87%
23:00 +22°C° 0 mm 6 m/S 763 mmHg 87%

24 Januar, Sonntag

Zeit Temperatur Niederschläge Wind Luftdruck Luftfeuchtigkeit
00:00 +22°C° 0 mm 6 m/S 763 mmHg 87%
01:00 +21°C° 0 mm 6 m/S 763 mmHg 87%
02:00 +21°C° 0 mm 6 m/S 762 mmHg 88%
03:00 +21°C° 0 mm 6 m/S 762 mmHg 88%
04:00 +21°C° 0 mm 6 m/S 762 mmHg 89%
05:00 +21°C° 0 mm 6 m/S 762 mmHg 89%
06:00 +21°C° 0 mm 6 m/S 763 mmHg 88%
07:00 +21°C° 0 mm 6 m/S 763 mmHg 88%
08:00 +22°C° 0 mm 6 m/S 763 mmHg 81%
09:00 +24°C° 0 mm 6 m/S 764 mmHg 73%
10:00 +27°C° 0 mm 6 m/S 764 mmHg 66%
11:00 +27°C° 0 mm 6 m/S 764 mmHg 63%
12:00 +28°C° 0 mm 6 m/S 763 mmHg 61%
13:00 +29°C° 0 mm 6 m/S 763 mmHg 58%
14:00 +28°C° 0 mm 6 m/S 762 mmHg 60%
15:00 +28°C° 0 mm 6 m/S 762 mmHg 61%
16:00 +28°C° 0 mm 6 m/S 761 mmHg 63%
17:00 +26°C° 0 mm 7 m/S 762 mmHg 69%
18:00 +24°C° 0 mm 7 m/S 762 mmHg 75%
19:00 +23°C° 0 mm 7 m/S 762 mmHg 80%
20:00 +23°C° 0 mm 7 m/S 762 mmHg 82%
21:00 +23°C° 0 mm 7 m/S 763 mmHg 83%
22:00 +22°C° 0 mm 7 m/S 763 mmHg 85%
23:00 +22°C° 0 mm 7 m/S 762 mmHg 86%

25 Januar, Montag

Zeit Temperatur Niederschläge Wind Luftdruck Luftfeuchtigkeit
00:00 +22°C° 0 mm 8 m/S 762 mmHg 87%
01:00 +22°C° 0 mm 8 m/S 762 mmHg 88%
02:00 +22°C° 0 mm 8 m/S 761 mmHg 85%
03:00 +23°C° 0 mm 8 m/S 761 mmHg 83%
04:00 +23°C° 0 mm 8 m/S 761 mmHg 81%
05:00 +23°C° 0 mm 7 m/S 761 mmHg 82%
06:00 +22°C° 0 mm 7 m/S 762 mmHg 83%
07:00 +22°C° 0 mm 7 m/S 762 mmHg 84%
08:00 +23°C° 0 mm 7 m/S 762 mmHg 78%
09:00 +26°C° 0 mm 7 m/S 763 mmHg 72%
10:00 +27°C° 0 mm 7 m/S 763 mmHg 65%
11:00 +28°C° 0 mm 7 m/S 762 mmHg 61%
12:00 +29°C° 0 mm 7 m/S 762 mmHg 57%
13:00 +30°C° 0 mm 7 m/S 761 mmHg 53%
14:00 +30°C° 0 mm 7 m/S 761 mmHg 52%
15:00 +30°C° 0 mm 7 m/S 760 mmHg 51%
16:00 +30°C° 0 mm 7 m/S 760 mmHg 51%
17:00 +29°C° 0 mm 7 m/S 760 mmHg 58%
18:00 +27°C° 0 mm 7 m/S 761 mmHg 65%
19:00 +24°C° 0 mm 7 m/S 761 mmHg 71%
20:00 +23°C° 0 mm 7 m/S 761 mmHg 75%
21:00 +23°C° 0 mm 6 m/S 762 mmHg 79%
22:00 +22°C° 0 mm 6 m/S 762 mmHg 82%
23:00 +21°C° 0 mm 6 m/S 762 mmHg 85%

26 Januar, Dienstag

Zeit Temperatur Niederschläge Wind Luftdruck Luftfeuchtigkeit
00:00 +21°C° 0 mm 5 m/S 761 mmHg 87%
01:00 +21°C° 0 mm 5 m/S 761 mmHg 89%
02:00 +21°C° 0 mm 5 m/S 761 mmHg 90%
03:00 +20°C° 0 mm 4 m/S 761 mmHg 91%
04:00 +20°C° 0 mm 4 m/S 761 mmHg 92%
05:00 +20°C° 0 mm 4 m/S 761 mmHg 93%
06:00 +20°C° 0 mm 4 m/S 761 mmHg 93%
07:00 +20°C° 0 mm 3 m/S 762 mmHg 93%
08:00 +22°C° 0 mm 3 m/S 762 mmHg 84%
09:00 +26°C° 0 mm 3 m/S 763 mmHg 74%
10:00 +28°C° 0 mm 2 m/S 763 mmHg 65%
11:00 +29°C° 0 mm 2 m/S 763 mmHg 60%
12:00 +30°C° 0 mm 2 m/S 762 mmHg 55%
13:00 +31°C° 0 mm 2 m/S 762 mmHg 51%
14:00 +30°C° 0 mm 3 m/S 761 mmHg 55%
15:00 +29°C° 0 mm 3 m/S 761 mmHg 59%
16:00 +29°C° 0 mm 4 m/S 761 mmHg 63%
17:00 +28°C° 0 mm 4 m/S 761 mmHg 71%
18:00 +26°C° 0 mm 4 m/S 762 mmHg 78%
19:00 +25°C° 0 mm 5 m/S 762 mmHg 86%
20:00 +23°C° 0 mm 5 m/S 762 mmHg 88%
21:00 +23°C° 0 mm 5 m/S 762 mmHg 90%
22:00 +23°C° 0 mm 5 m/S 763 mmHg 92%
23:00 +23°C° 0 mm 5 m/S 763 mmHg 93%
Mehr zeigen

Wir brauchen deine Erlaubnis

Meteoprog und unser Service Anbieter werden persönliche Daten aufbewahren, so wie Cookies, Geräte Bezeichnung oder ähnliche Technologien von deinem Gerät und Prozess, so wie Persönliche Daten Inhalte und Werbungen, genauso wie social Media und den Verkehr zu analysieren.

  • Aufbewahrung und/oder Zugang zu deiner Geräte Informationen.

    Cookies, Geräte Bezeichnung oder andere Informationen, können aufbewahrt oder Zugang zu deinem Gerät erhalten, für den Grund, der oben angegeben wird.

  • Personalisierte Werbung und Inhalte, Messungen, Einblick in das Publikum und Produkt Entwicklung.

    Werbungen und Inhalte können personalisiert werden, basierend auf ein Profil. Mehr Daten können besser personalisierte Werbungen und Inhalte hinzufügen. Werbung und Inhalte können gezeigt und gemessen werden. Einblicke über das Publikum, welche die Werbung gesehen haben und den Inhalt, können abgeleitet werden. So wie Daten können genutzt werden, um es zu verbessern oder die Benutzer Erfahrung zu verbessern das System und die Software.

Wenn du “Ich stimme zu” klickst, erlaubst du uns, die Cookies zu benutzen die Geräte Bezeichnung, den Web oder ähnliche Technologien zu benutzen. Deine Settings, können in deinem Gerät bei deinem Browser geändert werden.

Für den bestimmten Zweck, berechtigten Interessen beruhen darauf, mehr als auf den Inhalt. Du kannst mehr darüber in unseren Privaten und Cookie Politik lesen.